W4EDP Weather Reports


time (UTC)temp
F
wind
direction
speed
knots
gust
knots
rain 1hr
in
rain 24hr
in
rain mn
in
humidity
%
barometer
mb
20260509012012 59 0 0.0 2.6 0.00 0.00 0.00 63 1012.3
20260509011012 59 0 0.9 5.2 0.00 0.00 0.00 62 1012.6
20260509010005 59 0 0.9 5.2 0.00 0.00 0.00 63 1012.6
20260509004948 59 0 0.0 0.0 0.00 0.00 0.00 66 1012.6
20260509003921 59 0 0.0 3.5 0.00 0.00 0.00 65 1012.7
20260509002906 59 0 0.0 0.0 0.00 0.00 0.00 66 1012.6
20260509001909 60 0 0.0 0.0 0.00 0.00 0.00 67 1012.6
20260509000922 60 0 0.0 2.6 0.00 0.00 0.00 66 1012.4
20260508235932 61 0 0.0 0.0 0.00 0.00 0.00 63 1012.4
20260508234918 61 0 0.9 3.5 0.00 0.00 0.00 64 1012.3
20260508233933 61 0 0.0 0.0 0.00 0.00 0.00 64 1012.5
20260508232914 61 0 0.9 3.5 0.00 0.00 0.00 61 1012.5
20260508231843 62 0 0.0 3.5 0.00 0.00 0.00 60 1012.3
20260508230815 62 0 0.9 3.5 0.00 0.00 0.00 60 1012.7
20260508225829 62 139 0.9 3.5 0.00 0.00 0.00 57 1012.6
20260508224758 62 177 0.0 0.0 0.00 0.00 0.00 55 1012.6
20260508223802 63 142 0.0 0.0 0.00 0.00 0.00 58 1012.8
20260508221607 63 196 0.0 0.0 0.00 0.00 0.00 58 1012.8
20260508220619 63 275 0.0 0.0 0.00 0.00 0.00 58 1012.8
20260508215626 63 126 0.0 0.0 0.00 0.00 0.00 58 1012.7
20260508214616 64 126 0.0 0.0 0.00 0.00 0.00 54 1012.7
20260508213621 63 125 0.0 0.0 0.00 0.00 0.00 55 1012.3
20260508212551 64 124 0.0 0.0 0.00 0.00 0.00 50 1012.6
20260508211547 64 123 0.0 0.0 0.00 0.00 0.00 52 1012.6
20260508210523 63 92 0.0 0.0 0.00 0.00 0.00 53 1012.9
20260508205455 65 205 0.0 0.0 0.00 0.00 0.00 52 1013.2
20260508204512 65 275 0.0 0.0 0.00 0.00 0.00 54 1013.2
20260508202328 65 179 0.0 0.0 0.00 0.00 0.00 53 1013.1
20260508201315 64 155 0.0 0.0 0.00 0.00 0.00 50 1013.5
20260508200323 62 152 0.0 0.0 0.00 0.00 0.00 49 1013.5
20260508194157 63 155 0.9 2.6 0.00 0.00 0.00 54 1013.8
20260508193144 62 157 0.0 0.0 0.00 0.00 0.00 52 1013.8
20260508192157 63 216 0.0 2.6 0.00 0.00 0.00 49 1014.0
20260508191159 63 141 0.9 0.9 0.00 0.00 0.00 53 1014.1
20260508190133 62 130 0.9 2.6 0.00 0.00 0.00 51 1014.1
20260508185116 63 151 0.9 2.6 0.00 0.00 0.00 50 1014.4
20260508184109 64 281 0.9 2.6 0.00 0.00 0.00 46 1014.7
20260508183125 63 197 0.9 3.5 0.00 0.00 0.00 47 1014.7
20260508182147 64 199 0.9 5.2 0.00 0.00 0.00 46 1015.1
20260508181212 64 239 0.9 5.2 0.00 0.00 0.00 42 1015.2
20260508180141 64 189 0.0 0.0 0.00 0.00 0.00 45 1015.2
20260508175107 62 103 0.0 0.0 0.00 0.00 0.00 45 1015.2
20260508174057 62 139 0.9 0.0 0.00 0.00 0.00 44 1015.7
20260508173055 63 117 0.9 2.6 0.00 0.00 0.00 54 1015.7
20260508172038 61 78 0.9 5.2 0.00 0.00 0.00 47 1015.8
20260508171103 62 167 0.0 0.0 0.00 0.00 0.00 49 1015.7
20260508170123 61 142 0.9 3.5 0.00 0.00 0.00 52 1015.7
20260508165054 60 90 0.9 5.2 0.00 0.00 0.00 53 1015.9
20260508164106 60 174 0.0 5.2 0.00 0.00 0.00 57 1016.3
20260508163056 60 63 0.0 0.0 0.00 0.00 0.00 51 1016.3
20260508162023 59 226 0.0 0.0 0.00 0.00 0.00 51 1016.6
20260508161024 59 153 0.0 0.0 0.00 0.00 0.00 56 1016.8
20260508160025 59 137 0.0 0.0 0.00 0.00 0.00 55 1016.8
20260508155011 59 103 0.0 0.0 0.00 0.00 0.00 54 1016.9
20260508152933 58 152 0.0 5.2 0.00 0.00 0.00 60 1016.8
20260508151901 57 113 0.9 3.5 0.00 0.00 0.00 58 1017.1
20260508150917 57 109 0.0 3.5 0.00 0.00 0.00 60 1017.0
20260508145859 57 141 0.0 0.0 0.00 0.00 0.00 60 1017.1
20260508144900 56 90 1.7 5.2 0.00 0.00 0.00 57 1017.1
20260508143844 56 134 1.7 5.2 0.00 0.00 0.00 62 1017.1
20260508142819 56 125 1.7 5.2 0.00 0.00 0.00 64 1017.1
20260508141757 56 155 1.7 5.2 0.00 0.00 0.00 66 1017.1
20260508134539 55 0 1.7 3.5 0.00 0.00 0.00 66 1017.1
20260508133604 54 0 0.9 3.5 0.00 0.00 0.00 66 1017.0
20260508132616 54 0 0.9 3.5 0.00 0.00 0.00 65 1016.9
20260508131601 53 0 0.9 3.5 0.00 0.00 0.00 65 1016.9
20260508130614 53 0 1.7 3.5 0.00 0.00 0.00 66 1017.0
20260508125626 53 0 0.9 3.5 0.00 0.00 0.00 60 1017.0
20260508124554 52 0 0.0 0.0 0.00 0.00 0.00 65 1017.0
20260508123531 52 0 0.0 0.0 0.00 0.00 0.00 65 1017.0
20260508122545 52 0 0.9 2.6 0.00 0.00 0.00 69 1016.9
20260508121607 51 0 0.9 2.6 0.00 0.00 0.00 67 1016.9
20260508115527 50 0 0.9 2.6 0.00 0.00 0.00 63 1016.4
20260508114459 50 0 0.9 3.5 0.00 0.00 0.00 64 1016.4
20260508113424 49 0 0.9 2.6 0.00 0.00 0.00 63 1016.0
20260508112411 49 0 0.9 2.6 0.00 0.00 0.00 64 1015.8
20260508111415 50 0 0.9 3.5 0.00 0.00 0.00 63 1015.8
20260508110431 49 0 0.9 3.5 0.00 0.01 0.00 64 1015.5
20260508105438 50 0 0.9 2.6 0.00 0.01 0.00 63 1015.4
20260508104432 50 0 0.0 0.0 0.00 0.01 0.00 59 1015.4
20260508103438 50 0 0.0 0.0 0.00 0.01 0.00 63 1015.2
20260508095025 50 0 0.9 2.6 0.00 0.01 0.00 62 1014.7
20260508093952 50 0 0.9 2.6 0.00 0.01 0.00 61 1014.7
20260508091756 50 0 0.9 3.5 0.00 0.06 0.00 61 1014.7
20260508090729 51 0 0.0 3.5 0.00 0.16 0.00 61 1014.6
20260508085656 51 0 0.0 0.0 0.00 0.21 0.00 64 1014.5
20260508083537 51 0 0.0 0.9 0.00 0.23 0.00 64 1014.5
20260508082504 51 0 0.9 3.5 0.00 0.28 0.00 64 1014.5
20260508081442 51 0 0.9 2.6 0.00 0.29 0.00 66 1014.5
20260508080457 51 0 0.9 0.9 0.00 0.29 0.00 67 1014.5
20260508075459 51 0 0.9 3.5 0.00 0.29 0.00 68 1014.5
20260508074521 51 0 0.9 3.5 0.00 0.29 0.00 67 1014.5
20260508073541 51 0 0.9 3.5 0.00 0.29 0.00 67 1014.6
20260508072514 51 0 0.9 3.5 0.00 0.29 0.00 68 1014.6
20260508071513 51 0 0.9 3.5 0.00 0.29 0.00 68 1014.6
20260508070500 51 0 0.9 3.5 0.00 0.29 0.00 69 1014.8
20260508064357 51 0 0.9 2.6 0.00 0.29 0.00 73 1015.0
20260508062307 51 0 0.9 2.6 0.00 0.29 0.00 72 1015.0
20260508061239 51 0 0.9 3.5 0.00 0.29 0.00 73 1015.1
20260508060224 51 0 0.9 3.5 0.00 0.29 0.00 72 1015.1
20260508055227 51 0 0.9 2.6 0.00 0.29 0.00 72 1015.0
20260508053111 51 0 0.9 2.6 0.00 0.29 0.00 73 1015.0
20260508052044 51 0 0.9 2.6 0.00 0.29 0.00 72 1014.9
20260508051056 51 0 0.0 0.0 0.00 0.29 0.00 73 1014.7
20260508044943 51 0 0.0 0.0 0.00 0.29 0.00 75 1014.7
20260508043932 51 0 0.0 0.9 0.00 0.29 0.00 75 1014.8
20260508042947 51 0 0.0 2.6 0.00 0.29 0.00 77 1014.8
20260508041951 51 0 0.0 0.9 0.00 0.30 0.00 75 1014.9
20260508040951 51 0 0.0 0.0 0.00 0.31 0.00 75 1014.6
20260508035928 52 0 0.0 0.0 0.00 0.31 0.31 78 1014.6
20260508033837 52 0 0.0 0.9 0.00 0.32 0.31 75 1014.4
20260508032837 52 0 0.0 0.0 0.00 0.37 0.31 76 1014.3
20260508030740 53 0 0.0 0.0 0.00 0.37 0.31 73 1014.3
20260508025804 52 0 0.0 0.0 0.00 0.42 0.31 74 1014.1
20260508023642 53 0 0.9 3.5 0.00 0.47 0.31 77 1014.2
20260508022658 53 0 0.9 3.5 0.00 0.48 0.31 76 1014.1
20260508021657 53 0 0.9 2.6 0.00 0.48 0.31 76 1014.1
20260508020710 53 0 0.9 3.5 0.00 0.48 0.31 79 1013.7
20260508015716 53 0 0.9 3.5 0.00 0.48 0.31 79 1013.7
20260508014732 53 0 0.0 2.6 0.00 0.48 0.31 78 1013.7
20260508013710 53 0 0.0 0.0 0.00 0.48 0.31 78 1013.6
20260508012734 54 0 0.0 0.0 0.00 0.48 0.31 78 1013.4